Showing default

METEOSAT 10 (MSG 3), 38552

Orbit data source: Space-Track

METEOSAT 10 (MSG 3), 38552 is a payload satellite owned by EUMETSAT (DE) in GEO that was launched on Thu, 05 Jul 2012 UTC via an ARIANE 5ECA launch vehicle from the French Guiana (FRGUI). Payload-class satellites include a variety of spacecraft equipped with specific instruments for various scientific and technological missions. These include communications satellites like Starlink; space stations such as the ISS; scientific satellites like the Hubble; Earth observation satellites from companies like Planet Labs, Umbra, and HawkEye 360; GPS; miniature CubeSats for education and research; and military/defense satellites.

Not visible in the next 10 days
Identifier
38552, 2012-035B
Orbit
GEO
Country
Flag of UnknownUnknown / EUME
Related business
Manufacturer
Thales Alenia
Mission
Operational Civil Weather
Bus & Motor
MSG, S400 X2
Mass
2,035 kg wet, 1,000 kg dry
Launch date (UTC)
2012-07-05 (14 years ago)
Launch vehicle
ARIANE 5ECA
Launch site
French Guiana (FRGUI)
Object type
Payload
Rocket body
Debris
Shape & HBR
Cyl, 2.0 m
Radar Cross Section
10.053 m², Large (>1 m²)

Expand to show TLE details & history
Last TLE update: 15 hours ago

TLE from 15 hours ago
0 METEOSAT 10 (MSG 3)
1 38552U 12035B   26061.73080794 -.00000019  00000-0  00000-0 0  9998
2 38552   4.4198  61.4700 0002487 292.1297  70.2445  1.00276905 49793
Epoch: 2026-03-02T17:32Z
TLE epoch observation values (Epoch: 2026-03-02T17:32:21.806Z)
Latitude
0.16171°
Longitude
0.28207°
Altitude
35,781.11 km
Speed
3.075 km/s
True Right ascension
04h 15m 34s
True Declination
0° 09' 42"
Sunlit
Object was in daylight at epoch
Visualization orbit readout
Latitude
Unknown
Longitude
Unknown
Altitude
Unknown
Speed
Unknown
Apparent Right ascension
Unknown
Apparent Declination
Unknown
Sunlit
N/A
Visualization observer readout
Local Sidereal Time
12:09:30
Azimuth
Unknown
Elevation
Unknown
Doppler factor
Unknown
Orbital elements
Apogee altitude
35,796.707 km
Perigee altitude
35,775.735 km
Semi-major axis
42,164.358 km
Eccentricity
0.00025
Inclination
4.4198°
RAAN
61.47°
Arg. of periapsis
292.1297°
True anomaly
70.27132°
Mean anomaly
70.2445°
Eccentric anomaly
70.25791°
Mean motion
0.25068 °/min
Orbital period
1,436.08 mins
BSTAR
0
Loading maneuver chart data...
Computing Atmospheric mass density...
Loading historical data...
Loading historical data...
Loading historical data...
Loading historical data...
Loading historical data...
Loading historical data...
Loading historical data...

Documentation

Showing up to 5 results
|